OAL407 LGKR-LGAV

Flight info

Callsign OAL407
Flight time 0h 51m
Altitude 23000
Route MALED M127 ARA Y144 NEMES
Aircraft DH8D/M-SDE2E3FGRY/H

Departure

Time 2026-05-07 13:51
Airport Corfu Ioannis Kapodistrias International Airport (LGKR)

Arrival

Time 2026-05-07 14:42
Airport Athens Eleftherios Venizelos International Airport (LGAV)
Time Latitude Longitude Altitude Speed Heading
2026-05-07 13:27 39.60628 19.91283 21 ft 0 kts 169°
2026-05-07 13:43 39.60627 19.91283 21 ft 0 kts 169°
2026-05-07 13:43 39.60612 19.91285 21 ft 0 kts 194°
2026-05-07 13:46 39.60605 19.91234 20 ft 9 kts 309°
2026-05-07 13:46 39.60691 19.91216 21 ft 13 kts 350°
2026-05-07 13:47 39.60778 19.91194 21 ft 12 kts 349°
2026-05-07 13:47 39.60859 19.91173 21 ft 11 kts 349°
2026-05-07 13:47 39.60938 19.91154 22 ft 11 kts 349°
2026-05-07 13:47 39.61012 19.91133 22 ft 11 kts 347°
2026-05-07 13:48 39.61087 19.91113 21 ft 11 kts 349°
2026-05-07 13:48 39.61162 19.91094 21 ft 10 kts 348°
2026-05-07 13:48 39.61206 19.91073 21 ft 0 kts 306°
2026-05-07 13:49 39.61210 19.91065 21 ft 2 kts 303°
2026-05-07 13:49 39.61224 19.91033 21 ft 4 kts 297°
2026-05-07 13:49 39.61239 19.90989 21 ft 3 kts 293°
2026-05-07 13:49 39.61248 19.90959 21 ft 4 kts 269°
2026-05-07 13:50 39.61235 19.90944 21 ft 3 kts 171°
2026-05-07 13:50 39.61234 19.90944 21 ft 0 kts 170°
2026-05-07 13:50 39.61213 19.90949 21 ft 22 kts 169°
2026-05-07 13:50 39.60698 19.91082 20 ft 122 kts 168°
2026-05-07 13:51 39.59732 19.91331 353 ft 152 kts 168°
2026-05-07 13:51 39.58651 19.91694 994 ft 168 kts 153°
2026-05-07 13:51 39.57709 19.92571 1844 ft 171 kts 139°
2026-05-07 13:51 39.56818 19.93615 2510 ft 179 kts 132°
2026-05-07 13:52 39.56062 19.94902 3265 ft 183 kts 128°
2026-05-07 13:52 39.55172 19.96160 3743 ft 200 kts 134°
2026-05-07 13:52 39.54188 19.97420 4465 ft 202 kts 140°
2026-05-07 13:52 39.53096 19.98532 5139 ft 206 kts 143°
2026-05-07 13:53 39.51953 19.99652 5918 ft 205 kts 144°
2026-05-07 13:53 39.50825 20.00767 6624 ft 208 kts 144°
2026-05-07 13:53 39.49636 20.01944 7063 ft 223 kts 144°
2026-05-07 13:53 39.48408 20.03170 7717 ft 227 kts 145°
2026-05-07 13:54 39.47203 20.04381 8553 ft 221 kts 146°
2026-05-07 13:54 39.46290 20.05296 8972 ft 226 kts 146°
2026-05-07 13:54 39.45061 20.06531 9633 ft 228 kts 146°
2026-05-07 13:54 39.43820 20.07781 10291 ft 230 kts 146°
2026-05-07 13:55 39.42560 20.09080 10908 ft 234 kts 147°
2026-05-07 13:55 39.41294 20.10396 11571 ft 235 kts 147°
2026-05-07 13:55 39.40020 20.11719 12196 ft 237 kts 147°
2026-05-07 13:55 39.38732 20.13056 12832 ft 239 kts 148°
2026-05-07 13:56 39.37450 20.14385 13370 ft 243 kts 148°
2026-05-07 13:56 39.36127 20.15756 13954 ft 243 kts 148°
2026-05-07 13:56 39.34787 20.17142 14413 ft 249 kts 148°
2026-05-07 13:56 39.33444 20.18535 14933 ft 252 kts 148°
2026-05-07 13:57 39.32073 20.19955 15453 ft 254 kts 148°
2026-05-07 13:57 39.30685 20.21387 15900 ft 257 kts 148°
2026-05-07 13:57 39.29294 20.22825 16329 ft 262 kts 148°
2026-05-07 13:57 39.27861 20.24303 16837 ft 261 kts 148°
2026-05-07 13:58 39.26430 20.25779 17179 ft 270 kts 148°
2026-05-07 13:58 39.25040 20.27228 18135 ft 246 kts 148°
2026-05-07 13:58 39.23761 20.28561 18797 ft 240 kts 149°
2026-05-07 13:58 39.22395 20.29947 18841 ft 259 kts 148°
2026-05-07 13:59 39.20940 20.31431 18983 ft 274 kts 148°
2026-05-07 13:59 39.19424 20.32990 19237 ft 282 kts 147°
2026-05-07 13:59 39.17900 20.34566 19662 ft 284 kts 147°
2026-05-07 13:59 39.16385 20.36132 20102 ft 284 kts 147°
2026-05-07 14:00 39.14813 20.37748 20290 ft 293 kts 147°
2026-05-07 14:00 39.13247 20.39366 20805 ft 288 kts 146°
2026-05-07 14:00 39.11652 20.41008 21061 ft 293 kts 146°
2026-05-07 14:00 39.10043 20.42662 21372 ft 295 kts 146°
2026-05-07 14:01 39.08438 20.44312 21622 ft 300 kts 146°
2026-05-07 14:01 39.06812 20.45982 21942 ft 301 kts 146°
2026-05-07 14:01 39.05164 20.47673 22187 ft 305 kts 146°
2026-05-07 14:01 39.03496 20.49353 22520 ft 304 kts 147°
2026-05-07 14:02 39.01815 20.51030 22847 ft 303 kts 147°
2026-05-07 14:02 39.00145 20.52694 23016 ft 308 kts 147°
2026-05-07 14:02 38.98463 20.54373 23290 ft 309 kts 147°
2026-05-07 14:02 38.96755 20.56075 23579 ft 308 kts 146°
2026-05-07 14:03 38.95044 20.57778 23716 ft 313 kts 147°
2026-05-07 14:03 38.93312 20.59503 23890 ft 317 kts 146°
2026-05-07 14:03 38.91581 20.61225 24112 ft 318 kts 147°
2026-05-07 14:03 38.89815 20.62982 24331 ft 318 kts 147°
2026-05-07 14:04 38.88068 20.64720 24511 ft 321 kts 147°
2026-05-07 14:04 38.86293 20.66497 24679 ft 323 kts 147°
2026-05-07 14:04 38.84522 20.68320 24821 ft 325 kts 146°
2026-05-07 14:04 38.82765 20.70138 24997 ft 327 kts 146°
2026-05-07 14:05 38.81004 20.71955 25054 ft 332 kts 147°
2026-05-07 14:05 38.79190 20.73821 25069 ft 337 kts 146°
2026-05-07 14:05 38.77334 20.75731 25071 ft 343 kts 146°
2026-05-07 14:05 38.75454 20.77663 25078 ft 348 kts 146°
2026-05-07 14:06 38.73559 20.79610 25080 ft 352 kts 146°
2026-05-07 14:06 38.71653 20.81567 25069 ft 355 kts 146°
2026-05-07 14:06 38.69725 20.83544 25070 ft 358 kts 146°
2026-05-07 14:06 38.67764 20.85554 25077 ft 360 kts 146°
2026-05-07 14:07 38.65803 20.87563 25082 ft 363 kts 146°
2026-05-07 14:07 38.63830 20.89582 25077 ft 364 kts 146°
2026-05-07 14:07 38.61840 20.91616 25079 ft 366 kts 146°
2026-05-07 14:07 38.59845 20.93653 25070 ft 368 kts 146°
2026-05-07 14:08 38.57875 20.95729 25081 ft 370 kts 143°
2026-05-07 14:08 38.55944 20.97920 25074 ft 371 kts 143°
2026-05-07 14:08 38.54022 21.00112 25082 ft 372 kts 142°
2026-05-07 14:08 38.52091 21.02310 25074 ft 373 kts 142°
2026-05-07 14:09 38.50144 21.04519 25072 ft 374 kts 142°
2026-05-07 14:09 38.48207 21.06713 25069 ft 375 kts 142°
2026-05-07 14:09 38.46258 21.08913 25069 ft 376 kts 142°
2026-05-07 14:09 38.44307 21.11114 25070 ft 376 kts 142°
2026-05-07 14:10 38.42329 21.13337 25068 ft 377 kts 142°
2026-05-07 14:10 38.40371 21.15540 25068 ft 377 kts 142°
2026-05-07 14:10 38.38406 21.17749 25063 ft 377 kts 142°
2026-05-07 14:10 38.36427 21.19970 25065 ft 377 kts 142°
2026-05-07 14:11 38.34456 21.22181 25070 ft 377 kts 142°
2026-05-07 14:11 38.32506 21.24365 25076 ft 377 kts 143°
2026-05-07 14:11 38.30517 21.26591 25075 ft 377 kts 143°
2026-05-07 14:11 38.28561 21.28779 25075 ft 377 kts 142°
2026-05-07 14:12 38.26588 21.30983 25080 ft 377 kts 142°
2026-05-07 14:12 38.24606 21.33196 25078 ft 377 kts 142°
2026-05-07 14:12 38.22620 21.35411 25082 ft 377 kts 143°
2026-05-07 14:12 38.20652 21.37605 25077 ft 378 kts 142°
2026-05-07 14:13 38.18669 21.39813 25074 ft 378 kts 142°
2026-05-07 14:13 38.16698 21.42045 25076 ft 379 kts 139°
2026-05-07 14:13 38.15138 21.44750 25100 ft 382 kts 119°
2026-05-07 14:13 38.13963 21.47743 25079 ft 383 kts 116°
2026-05-07 14:14 38.13073 21.50921 25062 ft 383 kts 98°
2026-05-07 14:14 38.12911 21.54279 25087 ft 381 kts 88°
2026-05-07 14:14 38.12877 21.57622 25083 ft 381 kts 87°
2026-05-07 14:14 38.12859 21.60992 25091 ft 382 kts 86°
2026-05-07 14:15 38.12848 21.64379 25091 ft 382 kts 87°
2026-05-07 14:15 38.12840 21.67757 25088 ft 382 kts 88°
2026-05-07 14:15 38.12834 21.71114 25086 ft 382 kts 88°
2026-05-07 14:15 38.12830 21.74487 25086 ft 382 kts 87°
2026-05-07 14:16 38.12828 21.77865 25091 ft 383 kts 87°
2026-05-07 14:16 38.12825 21.81212 25105 ft 383 kts 88°
2026-05-07 14:16 38.12822 21.84606 25104 ft 383 kts 87°
2026-05-07 14:16 38.12818 21.87981 25118 ft 383 kts 87°
2026-05-07 14:17 38.12814 21.91371 25131 ft 383 kts 87°
2026-05-07 14:17 38.12810 21.94770 25130 ft 383 kts 86°
2026-05-07 14:17 38.12806 21.98118 25141 ft 382 kts 86°
2026-05-07 14:17 38.12800 22.01475 25146 ft 382 kts 87°
2026-05-07 14:18 38.12794 22.04844 25147 ft 381 kts 86°
2026-05-07 14:18 38.12787 22.08202 25145 ft 380 kts 87°
2026-05-07 14:18 38.12779 22.11556 25144 ft 379 kts 87°
2026-05-07 14:18 38.12770 22.14892 25149 ft 378 kts 87°
2026-05-07 14:19 38.12761 22.18227 25156 ft 377 kts 87°
2026-05-07 14:19 38.12751 22.21562 25151 ft 377 kts 87°
2026-05-07 14:19 38.12739 22.24860 25146 ft 376 kts 87°
2026-05-07 14:19 38.12726 22.28169 25146 ft 376 kts 88°
2026-05-07 14:20 38.12713 22.31473 25141 ft 376 kts 88°
2026-05-07 14:20 38.12700 22.34783 25135 ft 375 kts 87°
2026-05-07 14:20 38.12688 22.38132 25127 ft 376 kts 87°
2026-05-07 14:20 38.12720 22.41406 25116 ft 375 kts 86°
2026-05-07 14:21 38.12791 22.44738 25107 ft 375 kts 85°
2026-05-07 14:21 38.12868 22.48013 25081 ft 376 kts 85°
2026-05-07 14:21 38.12948 22.51340 24964 ft 379 kts 85°
2026-05-07 14:21 38.13031 22.54732 24844 ft 382 kts 86°
2026-05-07 14:22 38.13115 22.58065 24727 ft 384 kts 85°
2026-05-07 14:22 38.13206 22.61491 24600 ft 385 kts 85°
2026-05-07 14:22 38.13307 22.64861 24480 ft 387 kts 85°
2026-05-07 14:22 38.13415 22.68253 24356 ft 387 kts 85°
2026-05-07 14:23 38.13526 22.71623 24219 ft 377 kts 86°
2026-05-07 14:23 38.13634 22.74894 24074 ft 368 kts 86°
2026-05-07 14:23 38.13744 22.78104 23935 ft 360 kts 86°
2026-05-07 14:23 38.13862 22.81271 23810 ft 358 kts 86°
2026-05-07 14:24 38.13979 22.84439 23618 ft 358 kts 85°
2026-05-07 14:24 38.14097 22.87579 23426 ft 358 kts 86°
2026-05-07 14:24 38.14222 22.90706 23234 ft 358 kts 86°
2026-05-07 14:24 38.14360 22.93860 23032 ft 357 kts 85°
2026-05-07 14:25 38.14500 22.97003 22825 ft 357 kts 86°
2026-05-07 14:25 38.14643 23.00171 22630 ft 357 kts 86°
2026-05-07 14:25 38.14790 23.03308 22426 ft 357 kts 86°
2026-05-07 14:25 38.14936 23.06452 22227 ft 358 kts 86°
2026-05-07 14:26 38.15087 23.09589 22027 ft 360 kts 85°
2026-05-07 14:26 38.15240 23.12778 21828 ft 362 kts 85°
2026-05-07 14:26 38.15391 23.15975 21626 ft 364 kts 85°
2026-05-07 14:26 38.15545 23.19201 21430 ft 370 kts 85°
2026-05-07 14:27 38.15700 23.22470 21237 ft 374 kts 85°
2026-05-07 14:27 38.15855 23.25775 21036 ft 377 kts 86°
2026-05-07 14:27 38.16014 23.29108 20836 ft 380 kts 86°
2026-05-07 14:27 38.16176 23.32457 20621 ft 383 kts 85°
2026-05-07 14:28 38.16332 23.35808 20309 ft 380 kts 85°
2026-05-07 14:28 38.16485 23.39138 19931 ft 376 kts 85°
2026-05-07 14:28 38.16640 23.42435 19551 ft 375 kts 85°
2026-05-07 14:28 38.16798 23.45747 19097 ft 372 kts 85°
2026-05-07 14:29 38.16955 23.48992 18604 ft 368 kts 85°
2026-05-07 14:29 38.17113 23.52208 18085 ft 364 kts 85°
2026-05-07 14:29 38.17276 23.55426 17577 ft 361 kts 85°
2026-05-07 14:29 38.17435 23.58561 17089 ft 362 kts 85°
2026-05-07 14:30 38.17589 23.61771 16605 ft 367 kts 85°
2026-05-07 14:30 38.17745 23.65034 16019 ft 374 kts 86°
2026-05-07 14:30 38.17904 23.68341 15429 ft 375 kts 86°
2026-05-07 14:30 38.18058 23.71592 14849 ft 366 kts 86°
2026-05-07 14:31 38.18209 23.74762 14226 ft 359 kts 85°
2026-05-07 14:31 38.18260 23.77922 13610 ft 354 kts 95°
2026-05-07 14:31 38.17607 23.80885 13023 ft 347 kts 116°
2026-05-07 14:31 38.16410 23.83465 12426 ft 340 kts 124°
2026-05-07 14:32 38.15108 23.85943 11802 ft 336 kts 126°
2026-05-07 14:32 38.13807 23.88363 11187 ft 327 kts 125°
2026-05-07 14:32 38.12531 23.90710 10563 ft 318 kts 125°
2026-05-07 14:32 38.11274 23.92977 9946 ft 308 kts 125°
2026-05-07 14:33 38.10066 23.95120 9484 ft 293 kts 126°
2026-05-07 14:33 38.08906 23.97166 9006 ft 282 kts 125°
2026-05-07 14:33 38.07749 23.99198 8522 ft 281 kts 126°
2026-05-07 14:33 38.06629 24.01173 8029 ft 272 kts 126°
2026-05-07 14:34 38.05557 24.03069 7569 ft 263 kts 125°
2026-05-07 14:34 38.04525 24.04896 7286 ft 247 kts 126°
2026-05-07 14:34 38.03495 24.06720 7052 ft 258 kts 126°
2026-05-07 14:34 38.02465 24.08564 6848 ft 256 kts 126°
2026-05-07 14:35 38.01451 24.10396 6715 ft 255 kts 126°
2026-05-07 14:35 38.00428 24.12237 6606 ft 252 kts 126°
2026-05-07 14:35 37.99490 24.14055 6460 ft 241 kts 117°
2026-05-07 14:35 37.99155 24.16104 6322 ft 244 kts 88°
2026-05-07 14:36 37.99656 24.18158 6226 ft 247 kts 59°
2026-05-07 14:36 38.00885 24.19688 6112 ft 246 kts 30°
2026-05-07 14:36 38.02470 24.20262 5906 ft 231 kts
2026-05-07 14:36 38.03986 24.19948 5653 ft 217 kts 345°
2026-05-07 14:37 38.05429 24.19493 5395 ft 207 kts 345°
2026-05-07 14:37 38.08074 24.18416 4809 ft 205 kts 321°
2026-05-07 14:37 38.08937 24.16933 4549 ft 217 kts 289°
2026-05-07 14:38 38.09053 24.14961 4293 ft 242 kts 260°
2026-05-07 14:38 38.08705 24.12888 4071 ft 236 kts 255°
2026-05-07 14:38 38.08345 24.10900 3791 ft 231 kts 256°
2026-05-07 14:38 38.07878 24.08942 3405 ft 235 kts 239°
2026-05-07 14:39 38.06671 24.07562 3049 ft 235 kts 206°
2026-05-07 14:39 38.05284 24.06604 2741 ft 222 kts 214°
2026-05-07 14:39 38.04108 24.05437 2445 ft 210 kts 216°
2026-05-07 14:39 38.02948 24.04389 2168 ft 199 kts 214°
2026-05-07 14:40 38.01870 24.03379 1909 ft 182 kts 216°
2026-05-07 14:40 38.00923 24.02476 1718 ft 157 kts 216°
2026-05-07 14:40 38.00105 24.01701 1543 ft 142 kts 216°
2026-05-07 14:40 37.99334 24.00967 1328 ft 131 kts 214°
2026-05-07 14:41 37.98594 24.00288 1157 ft 134 kts 216°
2026-05-07 14:41 37.97858 23.99565 1109 ft 134 kts 216°
2026-05-07 14:41 37.97115 23.98856 865 ft 134 kts 216°
2026-05-07 14:41 37.96373 23.98148 664 ft 132 kts 216°
2026-05-07 14:42 37.95651 23.97452 493 ft 131 kts 217°
2026-05-07 14:42 37.94907 23.96751 343 ft 133 kts 216°
2026-05-07 14:42 37.94226 23.96104 317 ft 98 kts 216°
2026-05-07 14:42 37.93907 23.95784 318 ft 36 kts 233°
2026-05-07 14:43 37.93811 23.95574 317 ft 11 kts 244°
2026-05-07 14:43 37.93804 23.95556 317 ft 0 kts 245°
2026-05-07 14:43 37.93798 23.95533 318 ft 5 kts 258°
2026-05-07 14:44 37.93814 23.95481 317 ft 7 kts 309°
2026-05-07 14:44 37.93819 23.95473 317 ft 2 kts 316°
2026-05-07 14:44 37.93851 23.95482 317 ft 6 kts 32°
2026-05-07 14:44 37.93898 23.95514 317 ft 8 kts 36°
2026-05-07 14:45 37.93949 23.95565 317 ft 9 kts 38°
2026-05-07 14:45 37.94006 23.95620 317 ft 10 kts 37°
2026-05-07 14:45 37.94083 23.95632 317 ft 16 kts 321°
2026-05-07 14:45 37.94161 23.95508 317 ft 17 kts 307°
2026-05-07 14:46 37.94231 23.95389 317 ft 15 kts 307°
2026-05-07 14:46 37.94296 23.95278 317 ft 15 kts 306°
2026-05-07 14:46 37.94337 23.95225 317 ft 4 kts
2026-05-07 14:46 37.94373 23.95256 317 ft 7 kts 37°
2026-05-07 14:47 37.94395 23.95276 317 ft 0 kts 37°